Regional Weather Roundup
Issued by NWS

Home | Current Version | Previous Version | Text Only | Print | Product List | Glossary Off
Versions: 1 2 3 4 5 6 7 8 9 10 11 12 13 14 15 16 17 18 19 20 21 22 23 24 25 26 27 28 29 30 31 32 33 34 35 36 37 38 39 40 41 42 43 44 45 46 47 48 49 50

000
ASUS43 KBIS 202320
RWRND

NORTH DAKOTA REGIONAL WEATHER ROUNDUP
NATIONAL WEATHER SERVICE BISMARCK ND
500 PM CST SAT DEC 20 2014

NOTE: "FAIR" INDICATES FEW OR NO CLOUDS BELOW 12,000 FEET WITH NO
SIGNIFICANT WEATHER AND/OR OBSTRUCTIONS TO VISIBILITY.


NDZ001>003-009>011-017-210000-
NORTHWEST NORTH DAKOTA

CITY           SKY/WX    TMP DP  RH WIND       PRES   REMARKS
WILLISTON      CLOUDY    38  30  73 W7        29.77S
MINOT          CLEAR     26  24  92 S3        29.78S FOG
MINOT AFB      CLEAR     22  22 100 SE6       29.77F WCI  15
$$

NDZ018>021-031>035-040>046-210000-
SOUTHWEST NORTH DAKOTA

CITY           SKY/WX    TMP DP  RH WIND       PRES   REMARKS
BISMARCK       CLEAR     27  24  89 SE6       29.83F
DICKINSON      CLEAR     33  24  69 W9        29.79S
GARRISON         N/A     29  26  89 S3        29.79S
HETTINGER ARPT PTCLDY    34  25  69 W6        29.84S
$$

NDZ004>008-012>016-024-026-027-054-210000-
NORTHEAST NORTH DAKOTA

CITY           SKY/WX    TMP DP  RH WIND       PRES   REMARKS
GRAND FORKS    CLOUDY    28  27  96 S12       29.93F FOG     WCI  18
GRND FRKS AFB  CLOUDY    28  28 100 S12       29.92F WCI  18
DEVILS LAKE    CLOUDY    27  19  74 S10       29.82F WCI  17
$$

NDZ022-023-025-028>030-036>039-047>053-210000-
SOUTHEAST NORTH DAKOTA

CITY           SKY/WX    TMP DP  RH WIND       PRES   REMARKS
FARGO          CLOUDY    31  28  89 S16G22    29.96S WCI  20
JAMESTOWN      CLOUDY    30  26  85 S12       29.85F
$$



USA.gov is the U.S. government's official web portal to all federal, state and local government web resources and services.